Weather History for Waterloo, IA

Change the Weather History Date:

Friday, March 21, 2014

  Actual Average Record
Temperature  
Mean Temperature 43 °F 38 °F  
Max Temperature 55 °F 48 °F 83 °F (1938)
Min Temperature 30 °F 28 °F -5 °F (1951)
Degree Days  
Heating Degree Days 22 27  
Month to date heating degree days 820 659  
Since 1 July heating degree days 7228 6078  
Cooling Degree Days 0 0  
Month to date cooling degree days 0 0  
Year to date cooling degree days 0 0  
Moisture  
Dew Point 30 °F    
Average Humidity 70    
Maximum Humidity 85    
Minimum Humidity 54    
Precipitation  
Precipitation 0.00 in 0.07 in 0.50 in (1993)
Month to date precipitation 0.69 1.27  
Year to date precipitation 3.32 3.09  
Snow  
Snow 0.00 in 0.10 in 6.00 in (1912)
Month to date snowfall 5.6 3.4  
Since 1 July snowfall 57.4 32.3  
Snow Depth 0.00 in    
Sea Level Pressure  
Sea Level Pressure 29.90 in    
Wind  
Wind Speed 14 mph (WNW)    
Max Wind Speed 31 mph    
Max Gust Speed 38 mph    
Visibility 10 miles    
Events      
T = Trace of Precipitation, MM = Missing Value Source: NWS Daily Summary

Daily Weather History Graph

Daily Weather History Graph

Search for Another Location

Airport:

Trip Planner

Search our weather history database for the weather conditions in past years. The results will help you decide how hot, cold, wet, or windy it might be!

Date:

Astronomy

Mar. 21, 2014 Rise Set
Actual Time 7:11 AM CDT 7:23 PM CDT
Civil Twilight 6:42 AM CDT 7:51 PM CDT
Nautical Twilight 6:10 AM CDT 8:24 PM CDT
Astronomical Twilight 5:36 AM CDT 8:58 PM CDT
Moon No Moon Rise 9:57 AM CDT (3/21)
Length of Visible Light 13h 08m
Length of Day
12h 11m
Waning Gibbous, 75% of the Moon is Illuminated
Mar 21
Waning Gibbous
Mar 23
Last Quarter
Mar 30
New
Apr 7
First Quarter
Apr 15
Full

Hourly Weather History & Observations

Time (CDT) Temp. Windchill Dew Point Humidity Pressure Visibility Wind Dir Wind Speed Gust Speed Precip Events Conditions
12:54 AM 32.0 °F 25.6 °F 24.1 °F 73% 29.96 in 10.0 mi SE 6.9 mph - N/A   Clear
1:54 AM 32.0 °F 24.8 °F 24.1 °F 73% 29.94 in 10.0 mi SE 8.1 mph - N/A   Clear
2:54 AM 32.0 °F 24.2 °F 24.1 °F 73% 29.90 in 10.0 mi SE 9.2 mph - N/A   Clear
3:54 AM 32.0 °F 25.6 °F 25.0 °F 75% 29.88 in 10.0 mi SE 6.9 mph - N/A   Clear
4:54 AM 30.0 °F 23.2 °F 24.1 °F 79% 29.87 in 10.0 mi ESE 6.9 mph - N/A   Clear
5:54 AM 30.9 °F 23.5 °F 26.1 °F 82% 29.86 in 10.0 mi SE 8.1 mph - N/A   Partly Cloudy
6:54 AM 32.0 °F 24.8 °F 26.1 °F 79% 29.85 in 10.0 mi SE 8.1 mph - N/A   Partly Cloudy
7:54 AM 33.1 °F 26.9 °F 27.0 °F 78% 29.85 in 10.0 mi SE 6.9 mph - N/A   Clear
8:54 AM 35.1 °F 29.3 °F 28.9 °F 78% 29.85 in 10.0 mi SE 6.9 mph - N/A   Clear
9:54 AM 39.9 °F 32.9 °F 30.9 °F 70% 29.81 in 10.0 mi SE 11.5 mph - N/A   Clear
10:54 AM 42.1 °F 34.9 °F 33.1 °F 70% 29.81 in 10.0 mi South 13.8 mph - N/A   Clear
11:54 AM 45.0 °F 38.5 °F 35.1 °F 68% 29.81 in 10.0 mi SW 13.8 mph - N/A   Clear
12:54 PM 48.9 °F - 37.0 °F 64% 29.80 in 10.0 mi West 11.5 mph 16.1 mph N/A   Clear
1:54 PM 51.1 °F - 36.0 °F 56% 29.78 in 10.0 mi WNW 10.4 mph - N/A   Clear
2:54 PM 54.0 °F - 39.9 °F 59% 29.78 in 10.0 mi NW 19.6 mph 23.0 mph N/A   Partly Cloudy
3:54 PM 54.0 °F - 37.0 °F 53% 29.79 in 10.0 mi NW 18.4 mph 27.6 mph N/A   Mostly Cloudy
4:54 PM 50.0 °F - 37.9 °F 63% 29.81 in 10.0 mi NW 27.6 mph 35.7 mph N/A   Mostly Cloudy
5:35 PM 46.0 °F 37.2 °F 36.0 °F 68% 29.84 in 10.0 mi NW 26.5 mph 35.7 mph N/A   Mostly Cloudy
5:54 PM 42.1 °F 32.1 °F 33.1 °F 70% 29.89 in 10.0 mi NW 25.3 mph 35.7 mph N/A   Overcast
6:54 PM 37.0 °F 26.2 °F 30.9 °F 79% 29.94 in 10.0 mi NW 21.9 mph 34.5 mph N/A   Overcast
7:54 PM 36.0 °F 26.0 °F 30.0 °F 79% 29.98 in 10.0 mi NW 17.3 mph - N/A   Overcast
8:54 PM 35.1 °F 24.1 °F 27.0 °F 72% 30.02 in 10.0 mi NW 19.6 mph 33.4 mph N/A   Overcast
9:54 PM 34.0 °F 22.7 °F 27.0 °F 75% 30.05 in 10.0 mi NW 19.6 mph - N/A   Overcast
10:46 PM 32.0 °F 20.5 °F 26.1 °F 79% 30.04 in 10.0 mi NW 18.4 mph - N/A   Overcast
10:54 PM 32.0 °F 21.2 °F 26.1 °F 79% 30.07 in 10.0 mi NW 16.1 mph - N/A   Mostly Cloudy
11:23 PM 32.0 °F 21.2 °F 26.1 °F 79% 30.06 in 10.0 mi NW 16.1 mph - N/A   Mostly Cloudy
11:54 PM 30.9 °F 19.8 °F 26.1 °F 82% 30.10 in 10.0 mi NW 16.1 mph 23.0 mph N/A   Overcast